Tracking 19288 objects as of 20-Nov-2018
HD Live streaming from Space Station
objects crossing your sky now

OPS 9311 (IDSCS 1)

Track OPS 9311 (IDSCS 1) now!
OPS 9311 (IDSCS 1) is classified as:


NORAD ID: 2215
Int'l Code: 1966-053B
Perigee: 33,660.1 km
Apogee: 33,899.7 km
Inclination: 3.7 °
Period: 1,334.4 minutes
Semi major axis: 40150 km
RCS: 0.1671 m2 (medium)
Launch date: June 16, 1966
Source: United States (US)
Launch site: AIR FORCE EASTERN TEST RANGE (AFETR)
aabbcc
Your satellite tracking list
Your tracking list is empty




NASA's NSSDC Master Catalog

Two Line Element Set (TLE):
1  2215U 66053B   18323.70342489 -.00000094 +00000-0 +00000-0 0  9998
2  2215 003.7204 059.1651 0029839 162.3843 197.5080 01.07909756104518
Source of the keplerian elements: AFSPC